Flag for India Weather past 2 weeks in Kapurthala, Punjab, India

Now
68 °F

Fog.


Feels Like: 68 °F
Forecast: 64 / 87 °F
Wind: 1 mph from North

Location: Amritsar Airport

Current Time: Apr 1, 2015 at 10:24:51 AM

Latest Report: Apr 1, 2015 at 9:30 AM


Visibility: 2 mi

Pressure: 29.86 "Hg

Humidity: 88%

Dew point: 64 °F

Location of KapurthalaLocation

Historic Weather in Kapurthala — Graph

°F

Kapurthala temperature yesterday

Maximum temperature yesterday: 77 °F (at 3:00 PM)
Minimum temperature yesterday: 63 °F (at 5:30 AM)
Average temperature yesterday: 70 °F

Past Weeks' High & Low Weather Summary

 TemperatureHumidityPressure
High90 °F (Mar 28, 1:30 PM)100% (Mar 18, 12:30 AM)30.15 "Hg (Mar 18, 12:30 AM)
Low52 °F (Mar 18, 6:30 AM)40% (Mar 28, 12:00 PM)29.74 "Hg (Mar 28, 6:00 PM)
Average70 °F78%29.94 "Hg
* Reported Mar 17 8:30 AM — Apr 1 8:30 AM, Kapurthala, Weather by CustomWeather, © 2015

Note: Actual official high and low records may vary slightly from our data, if they occured in-between our weather recording intervals... More about our weather records

Advertising

Kapurthala weather history for previous 24 hours

 ConditionsComfort  
Time TempWeatherWind HumidityBarometerVisibility
8:30 AM
Wed, Apr 1
68 °FFog.No wind83%29.83 "Hg2 mi
8:00 AM66 °FFog.No wind83%29.83 "Hg2 mi
7:30 AM64 °FFog.No wind88%29.83 "Hg2 mi
7:00 AM64 °FFog.No wind88%29.80 "Hg2 mi
6:30 AM64 °FFog.No wind83%29.80 "Hg2 mi
6:00 AM64 °FFog.No wind83%29.80 "Hg2 mi
5:30 AM63 °FFog.No wind88%29.80 "Hg2 mi
4:30 AM64 °FFog.No wind83%29.80 "Hg2 mi
4:00 AM64 °FFog.No wind83%29.80 "Hg2 mi
3:30 AM64 °FFog.No wind83%29.83 "Hg2 mi
3:00 AM64 °FFog.5 mph83%29.83 "Hg2 mi
2:30 AM66 °FFog.No wind78%29.83 "Hg2 mi
2:00 AM64 °FFog.No wind83%29.86 "Hg2 mi
1:30 AM64 °FFog.No wind83%29.86 "Hg2 mi
12:30 AM64 °FFog.5 mph83%29.86 "Hg2 mi
12:00 AM66 °FFog.3 mph83%29.86 "Hg2 mi
11:30 PM
Tue, Mar 31
68 °FFog.3 mph78%29.89 "Hg2 mi
11:00 PM66 °FFog.No wind88%29.89 "Hg2 mi
10:30 PM70 °FFog.1 mph78%29.89 "Hg2 mi
10:00 PM68 °FFog.No wind88%29.89 "Hg2 mi
9:30 PM68 °FFog.No wind88%29.89 "Hg2 mi
9:00 PM70 °FFog.3 mph83%29.89 "Hg2 mi
8:30 PM72 °FFog.5 mph78%29.86 "Hg2 mi
8:00 PM70 °FFog.No wind88%29.86 "Hg2 mi
7:30 PM73 °FFog.3 mph78%29.86 "Hg2 mi
7:00 PM73 °FBroken clouds.3 mph78%29.86 "Hg2 mi
6:30 PM75 °FBroken clouds.3 mph74%29.83 "Hg2 mi
6:00 PM75 °FBroken clouds.No wind74%29.83 "Hg2 mi
5:30 PM77 °FBroken clouds.2 mph74%29.86 "Hg2 mi
5:00 PM77 °FBroken clouds.5 mph69%29.86 "Hg2 mi
4:30 PM77 °FBroken clouds.5 mph69%29.86 "Hg2 mi
4:00 PM75 °FBroken clouds.7 mph74%29.86 "Hg2 mi
3:30 PM75 °FBroken clouds.8 mph78%29.86 "Hg2 mi
3:00 PM77 °FBroken clouds.7 mph69%29.89 "Hg2 mi
2:30 PM75 °FBroken clouds.9 mph74%29.89 "Hg2 mi
2:00 PM75 °FBroken clouds.8 mph74%29.92 "Hg2 mi
1:30 PM75 °FBroken clouds.9 mph74%29.92 "Hg2 mi
1:00 PM73 °FFog.10 mph78%29.95 "Hg2 mi
12:30 PM73 °FFog.9 mph74%29.95 "Hg2 mi
12:00 PM73 °FFog.9 mph78%29.98 "Hg2 mi
11:30 AM72 °FFog.7 mph83%29.98 "Hg2 mi
11:00 AM72 °FFog.9 mph78%29.98 "Hg2 mi
10:30 AM72 °FFog.7 mph78%29.98 "Hg2 mi
10:00 AM70 °FFog.6 mph83%29.98 "Hg3 mi
Weather by CustomWeather, © 2015

See weather overviewHow to use our weather pages